CW1490 Weather Reports


Display with metric or nautical units.
time (UTC)temp
F
wind
direction
speed
MPH
gust
MPH
rain 1hr
in
rain 24hr
in
rain mn
in
humidity
%
barometer
mb
20180427024231 48 190 2.0 4.0 0.00 0.27 0.22 83 1010.2
20180427022727 49 299 0.0 11.0 0.00 0.27 0.22 82 1010.3
20180427021227 48 217 4.0 7.0 0.00 0.27 0.22 84 1010.4
20180427015726 48 256 2.0 5.0 0.00 0.33 0.22 83 1010.2
20180427014221 48 257 1.0 3.0 0.00 0.33 0.22 83 1009.9
20180427012721 48 205 3.0 5.0 0.00 0.33 0.22 85 1009.6
20180427011217 48 181 2.0 5.0 0.00 0.33 0.22 83 1009.2
20180427005715 47 194 4.0 6.0 0.00 0.33 0.22 85 1009.0
20180427004211 48 179 1.0 3.0 0.00 0.33 0.22 83 1008.6
20180427002707 50 196 2.0 5.0 0.00 0.33 0.22 76 1008.3
20180427001205 51 305 2.0 5.0 0.00 0.33 0.22 75 1008.0
20180426235703 50 220 1.0 3.0 0.00 0.33 0.22 77 1007.8
20180426234404 51 150 1.0 6.0 0.00 0.33 0.22 74 1007.8
20180426232702 52 232 4.0 11.0 0.00 0.33 0.22 73 1007.6
20180426231200 52 224 0.0 2.0 0.00 0.33 0.22 73 1007.5
20180426225657 52 214 3.0 5.0 0.00 0.36 0.22 72 1007.2
20180426224157 52 151 4.0 10.0 0.00 0.36 0.22 71 1007.1
20180426222656 52 270 4.0 14.0 0.00 0.36 0.22 71 1006.9
20180426221154 53 193 2.0 8.0 0.00 0.36 0.22 70 1007.3
20180426215652 53 200 5.0 17.0 0.00 0.41 0.22 71 1007.0
20180426214152 53 218 4.0 11.0 0.00 0.41 0.22 71 1006.8
20180426212651 53 206 5.0 10.0 0.00 0.41 0.22 69 1006.7
20180426211149 54 207 11.0 18.0 0.00 0.41 0.22 68 1006.3
20180426205645 54 235 9.0 21.0 0.00 0.59 0.22 68 1005.7
20180426204141 55 229 7.0 15.0 0.00 0.59 0.22 65 1005.7
20180426202638 56 279 7.0 18.0 0.00 0.59 0.22 63 1005.5
20180426201140 57 251 6.0 16.0 0.00 0.59 0.22 63 1005.1
20180426195634 58 235 6.0 14.0 0.00 0.66 0.22 64 1004.7
20180426194132 58 268 6.0 11.0 0.00 0.66 0.22 63 1004.3
20180426192632 58 276 3.0 10.0 0.00 0.66 0.22 63 1004.2
20180426191131 59 272 6.0 14.0 0.00 0.66 0.22 62 1004.0
20180426185629 59 258 10.0 18.0 0.00 0.74 0.22 62 1003.8
20180426184131 57 224 6.0 14.0 0.00 0.74 0.22 65 1003.9
20180426182629 57 233 7.0 15.0 0.00 0.74 0.22 67 1003.9
20180426181126 58 320 4.0 12.0 0.00 0.74 0.22 65 1004.0
20180426175625 59 279 5.0 15.0 0.00 0.79 0.22 64 1003.9
20180426174124 61 253 6.0 20.0 0.00 0.79 0.22 68 1003.8
20180426172623 60 228 8.0 27.0 0.00 0.79 0.22 65 1003.8
20180426171119 60 274 10.0 19.0 0.00 0.79 0.22 66 1003.0
20180426165620 60 181 7.0 18.0 0.00 0.84 0.22 67 1003.2
20180426164117 59 277 3.0 17.0 0.01 0.84 0.22 70 1003.1
20180426162715 58 228 7.0 19.0 0.01 0.84 0.22 70 1003.0
20180426161115 60 292 3.0 13.0 0.01 0.84 0.22 68 1002.8
20180426155613 61 220 5.0 14.0 0.01 0.89 0.22 73 1002.6
20180426154107 58 247 2.0 10.0 0.00 0.88 0.21 76 1002.3
20180426152608 59 267 2.0 9.0 0.00 0.88 0.21 77 1002.2
20180426151103 57 291 5.0 16.0 0.00 0.88 0.21 80 1002.5
20180426145603 57 201 3.0 6.0 0.00 0.96 0.21 86 1002.2
20180426144059 56 132 2.0 4.0 0.00 0.96 0.21 91 1002.1
20180426142558 56 124 2.0 5.0 0.00 0.96 0.21 92 1002.0
20180426141055 56 189 1.0 5.0 0.00 0.96 0.21 96 1001.7
20180426135555 55 132 2.0 4.0 0.00 1.02 0.21 97 1001.6
20180426134051 55 167 2.0 5.0 0.00 1.02 0.21 98 1001.7
20180426132548 54 237 1.0 3.0 0.01 1.02 0.21 98 1001.5
20180426131046 53 168 2.0 5.0 0.01 1.02 0.21 98 1001.5
20180426125546 53 187 0.0 4.0 0.01 1.06 0.21 98 1001.5
20180426124046 53 171 1.0 5.0 0.02 1.06 0.21 98 1001.4
20180426122542 53 211 1.0 3.0 0.03 1.05 0.20 98 1001.4
20180426121045 52 343 0.0 0.0 0.03 1.05 0.20 98 1001.3
20180426115540 52 343 0.0 0.0 0.03 1.12 0.20 98 1001.2
20180426114041 52 343 0.0 0.0 0.02 1.11 0.19 98 1001.2
20180426112541 52 343 0.0 0.0 0.00 1.09 0.17 98 1001.1
20180426111039 52 343 0.0 0.0 0.00 1.09 0.17 98 1001.0
20180426105537 52 343 0.0 0.0 0.00 1.13 0.17 98 1000.9
20180426104034 52 343 0.0 0.0 0.00 1.13 0.17 98 1000.9
20180426102533 52 4 0.0 0.0 0.00 1.13 0.17 98 1000.6
20180426101033 52 4 0.0 0.0 0.00 1.13 0.17 98 1000.8
20180426095532 52 4 0.0 0.0 0.00 1.17 0.17 98 1000.9
20180426094031 52 4 0.0 0.0 0.00 1.17 0.17 98 1000.7
20180426092531 52 4 0.0 0.0 0.00 1.17 0.17 98 1000.5
20180426091130 52 4 1.0 3.0 0.01 1.17 0.17 98 1000.4
20180426085530 52 4 1.0 3.0 0.01 1.19 0.17 98 1000.4
20180426084029 52 359 2.0 3.0 0.01 1.19 0.17 98 1000.4
20180426082528 52 4 1.0 3.0 0.01 1.19 0.17 98 1000.7
20180426081028 52 4 0.0 0.0 0.01 1.18 0.16 98 1000.9
20180426075526 52 4 0.0 0.0 0.01 1.18 0.16 98 1000.9
20180426074024 52 4 0.0 0.0 0.06 1.18 0.16 98 1001.1
20180426072522 52 4 2.0 4.0 0.12 1.18 0.16 98 1001.0
20180426071022 52 10 3.0 5.0 0.12 1.17 0.15 98 1000.9
20180426065520 52 21 1.0 4.0 0.12 1.17 0.15 98 1001.4
20180426064022 52 4 2.0 5.0 0.08 1.12 0.10 98 1001.5
20180426062517 53 18 3.0 5.0 0.02 1.06 0.04 98 1001.5
20180426061016 53 28 1.0 3.0 0.01 1.05 0.03 98 1001.5
20180426055517 53 359 0.0 4.0 0.01 1.05 0.03 98 1001.9
20180426054013 53 12 2.0 3.0 0.00 1.04 0.02 98 1001.9
20180426052512 53 11 2.0 3.0 0.00 1.04 0.02 98 1002.1
20180426051009 53 27 1.0 4.0 0.00 1.04 0.02 97 1002.4
20180426045507 53 26 2.0 5.0 0.02 1.04 0.02 97 1002.5
20180426044007 53 4 2.0 4.0 0.02 1.04 0.02 98 1002.6
20180426042503 53 8 2.0 4.0 0.03 1.04 0.02 98 1003.0
20180426041004 54 4 2.0 3.0 0.04 1.04 0.02 97 1003.3
20180426035501 54 4 1.0 2.0 0.05 1.02 1.02 97 1003.4
20180426034002 54 4 0.0 2.0 0.05 1.02 1.02 97 1003.5
20180426032459 54 4 0.0 3.0 0.04 1.01 1.01 97 1003.6
20180426030956 54 4 0.0 0.0 0.03 1.00 1.00 97 1004.0
20180426025453 54 4 0.0 0.0 0.01 0.97 0.97 97 1004.2